EAG5515 OMDW-WIII

Flight info

Callsign EAG5515
Flight time 7h 35m
Altitude 33000
Route ANVIX DCT TARDI N629 TOTOX P574 UDULO/N0495F350 P574 DUBTA/N0491F370 P574 ANSAX L762 ISVUR W12 PLB W12E BIDAK
Aircraft A343/H-SDE2E3FGHIJ4J5M1RWXY/LB1D1

Departure

Time 2026-04-26 04:56
Airport Al Maktoum International Airport (OMDW)

Arrival

Time 2026-04-26 12:31
Airport Soekarno-Hatta International Airport (WIII)
Time Latitude Longitude Altitude Speed Heading
2026-04-26 04:42 24.89401 55.15185 163 ft 0 kts 210°
2026-04-26 04:45 24.89402 55.15186 163 ft 3 kts 210°
2026-04-26 04:45 24.89428 55.15203 163 ft 5 kts 212°
2026-04-26 04:45 24.89455 55.15222 163 ft 5 kts 216°
2026-04-26 04:45 24.89469 55.15234 162 ft 2 kts 233°
2026-04-26 04:46 24.89476 55.15245 162 ft 2 kts 281°
2026-04-26 04:46 24.89473 55.15256 162 ft 2 kts 297°
2026-04-26 04:46 24.89468 55.15267 162 ft 2 kts 301°
2026-04-26 04:49 24.89495 55.15219 163 ft 10 kts 301°
2026-04-26 04:49 24.89537 55.15143 163 ft 13 kts 301°
2026-04-26 04:49 24.89586 55.15054 163 ft 14 kts 302°
2026-04-26 04:49 24.89640 55.14954 163 ft 16 kts 300°
2026-04-26 04:50 24.89699 55.14847 163 ft 16 kts 301°
2026-04-26 04:50 24.89786 55.14810 163 ft 15 kts 18°
2026-04-26 04:50 24.89879 55.14866 162 ft 16 kts 32°
2026-04-26 04:50 24.89976 55.14934 163 ft 17 kts 32°
2026-04-26 04:51 24.90069 55.14944 163 ft 16 kts 330°
2026-04-26 04:51 24.90154 55.14810 163 ft 24 kts 301°
2026-04-26 04:51 24.90238 55.14658 163 ft 23 kts 301°
2026-04-26 04:51 24.90317 55.14514 162 ft 22 kts 301°
2026-04-26 04:52 24.90396 55.14373 162 ft 21 kts 302°
2026-04-26 04:52 24.90485 55.14262 162 ft 16 kts 345°
2026-04-26 04:52 24.90528 55.14271 163 ft 0 kts 22°
2026-04-26 04:53 24.90543 55.14278 163 ft 9 kts 26°
2026-04-26 04:54 24.90603 55.14365 163 ft 17 kts 82°
2026-04-26 04:54 24.90569 55.14468 162 ft 0 kts 120°
2026-04-26 04:54 24.90561 55.14484 162 ft 16 kts 121°
2026-04-26 04:55 24.90406 55.14762 162 ft 68 kts 121°
2026-04-26 04:55 24.90079 55.15353 163 ft 112 kts 121°
2026-04-26 04:55 24.89607 55.16207 162 ft 148 kts 121°
2026-04-26 04:55 24.89016 55.17272 169 ft 178 kts 122°
2026-04-26 04:56 24.88364 55.18404 622 ft 176 kts 124°
2026-04-26 04:56 24.87682 55.19587 886 ft 190 kts 120°
2026-04-26 04:56 24.87000 55.20849 1293 ft 195 kts 119°
2026-04-26 04:56 24.86277 55.22187 1493 ft 213 kts 118°
2026-04-26 04:57 24.85480 55.23650 1702 ft 235 kts 118°
2026-04-26 04:57 24.84592 55.25270 1924 ft 257 kts 119°
2026-04-26 04:57 24.83646 55.26980 2410 ft 266 kts 120°
2026-04-26 04:57 24.82668 55.28744 2956 ft 272 kts 120°
2026-04-26 04:58 24.81692 55.30504 3577 ft 274 kts 120°
2026-04-26 04:58 24.80699 55.32296 4289 ft 274 kts 121°
2026-04-26 04:58 24.79703 55.34083 4981 ft 274 kts 121°
2026-04-26 04:58 24.78703 55.35879 5640 ft 276 kts 121°
2026-04-26 04:59 24.77695 55.37692 6268 ft 279 kts 122°
2026-04-26 04:59 24.76678 55.39519 6863 ft 282 kts 122°
2026-04-26 04:59 24.75668 55.41385 7438 ft 286 kts 118°
2026-04-26 04:59 24.75158 55.43497 7972 ft 292 kts 88°
2026-04-26 05:00 24.75568 55.45689 8512 ft 296 kts 70°
2026-04-26 05:00 24.76249 55.47816 9058 ft 301 kts 69°
2026-04-26 05:00 24.76968 55.49998 9657 ft 305 kts 69°
2026-04-26 05:00 24.77683 55.52214 10212 ft 310 kts 70°
2026-04-26 05:01 24.78407 55.54506 10501 ft 325 kts 71°
2026-04-26 05:01 24.79158 55.56910 10731 ft 340 kts 71°
2026-04-26 05:01 24.79942 55.59431 10938 ft 355 kts 71°
2026-04-26 05:01 24.80756 55.62054 11150 ft 369 kts 71°
2026-04-26 05:02 24.81560 55.64779 11451 ft 379 kts 76°
2026-04-26 05:02 24.82055 55.67643 11908 ft 383 kts 82°
2026-04-26 05:02 24.82423 55.70553 12424 ft 385 kts 83°
2026-04-26 05:02 24.82778 55.73443 12939 ft 387 kts 83°
2026-04-26 05:03 24.83142 55.76391 13456 ft 390 kts 83°
2026-04-26 05:03 24.83509 55.79356 13949 ft 392 kts 83°
2026-04-26 05:03 24.83774 55.82357 14332 ft 396 kts 91°
2026-04-26 05:03 24.83364 55.85350 14724 ft 397 kts 110°
2026-04-26 05:04 24.82108 55.88046 15152 ft 397 kts 126°
2026-04-26 05:04 24.80477 55.90509 15596 ft 399 kts 129°
2026-04-26 05:04 24.78781 55.92943 16041 ft 402 kts 131°
2026-04-26 05:04 24.76932 55.95203 16448 ft 405 kts 136°
2026-04-26 05:05 24.74917 55.97382 16913 ft 407 kts 139°
2026-04-26 05:05 24.72834 55.99506 17375 ft 410 kts 140°
2026-04-26 05:05 24.70715 56.01621 17818 ft 413 kts 140°
2026-04-26 05:05 24.68577 56.03756 18264 ft 417 kts 140°
2026-04-26 05:06 24.66428 56.05918 18651 ft 420 kts 140°
2026-04-26 05:06 24.64271 56.08110 19040 ft 424 kts 140°
2026-04-26 05:06 24.62105 56.10325 19423 ft 427 kts 140°
2026-04-26 05:06 24.59927 56.12560 19821 ft 430 kts 139°
2026-04-26 05:07 24.57791 56.14814 20204 ft 434 kts 136°
2026-04-26 05:07 24.55737 56.17260 20610 ft 437 kts 134°
2026-04-26 05:07 24.53715 56.19768 20956 ft 441 kts 134°
2026-04-26 05:07 24.51700 56.22321 21337 ft 444 kts 133°
2026-04-26 05:08 24.49682 56.24899 21725 ft 447 kts 133°
2026-04-26 05:08 24.47650 56.27501 22084 ft 450 kts 133°
2026-04-26 05:08 24.45610 56.30111 22442 ft 452 kts 133°
2026-04-26 05:08 24.43554 56.32732 22839 ft 453 kts 134°
2026-04-26 05:09 24.41496 56.35362 23207 ft 455 kts 134°
2026-04-26 05:09 24.40126 56.37108 23424 ft 457 kts 134°
2026-04-26 05:09 24.37360 56.40620 23798 ft 461 kts 134°
2026-04-26 05:09 24.35257 56.43283 24093 ft 463 kts 134°
2026-04-26 05:10 24.33143 56.45961 24397 ft 465 kts 134°
2026-04-26 05:10 24.31018 56.48652 24687 ft 468 kts 134°
2026-04-26 05:10 24.28893 56.51362 24972 ft 470 kts 133°
2026-04-26 05:10 24.27542 56.53228 25163 ft 473 kts 130°
2026-04-26 05:11 24.25594 56.56145 25464 ft 476 kts 128°
2026-04-26 05:11 24.23690 56.59120 25744 ft 478 kts 128°
2026-04-26 05:11 24.21162 56.63088 26138 ft 480 kts 128°
2026-04-26 05:11 24.19231 56.66083 26408 ft 482 kts 128°
2026-04-26 05:12 24.17275 56.69075 26684 ft 484 kts 129°
2026-04-26 05:12 24.15940 56.71099 26859 ft 485 kts 129°
2026-04-26 05:12 24.13979 56.74055 27115 ft 487 kts 129°
2026-04-26 05:12 24.11977 56.77060 27392 ft 489 kts 129°
2026-04-26 05:13 24.09967 56.80070 27656 ft 491 kts 129°
2026-04-26 05:13 24.07951 56.83088 27910 ft 493 kts 129°
2026-04-26 05:13 24.05923 56.86125 28152 ft 494 kts 129°
2026-04-26 05:13 24.03893 56.89163 28434 ft 495 kts 129°
2026-04-26 05:14 24.01858 56.92215 28670 ft 497 kts 129°
2026-04-26 05:14 23.99814 56.95272 28885 ft 499 kts 129°
2026-04-26 05:14 23.97760 56.98337 29120 ft 501 kts 129°
2026-04-26 05:14 23.95723 57.01373 29341 ft 503 kts 129°
2026-04-26 05:15 23.93652 57.04460 29561 ft 504 kts 129°
2026-04-26 05:15 23.91576 57.07551 29774 ft 506 kts 129°
2026-04-26 05:15 23.89493 57.10655 30033 ft 506 kts 129°
2026-04-26 05:15 23.87413 57.13759 30277 ft 506 kts 129°
2026-04-26 05:16 23.85328 57.16866 30442 ft 507 kts 129°
2026-04-26 05:16 23.83240 57.19973 30654 ft 508 kts 128°
2026-04-26 05:16 23.81143 57.23088 30839 ft 509 kts 128°
2026-04-26 05:16 23.79042 57.26207 31018 ft 511 kts 128°
2026-04-26 05:17 23.76964 57.29292 31201 ft 512 kts 128°
2026-04-26 05:17 23.74851 57.32427 31367 ft 513 kts 128°
2026-04-26 05:17 23.72734 57.35566 31565 ft 514 kts 128°
2026-04-26 05:17 23.70602 57.38702 31725 ft 515 kts 129°
2026-04-26 05:18 23.68403 57.41784 31959 ft 514 kts 130°
2026-04-26 05:18 23.66165 57.44829 32131 ft 515 kts 130°
2026-04-26 05:18 23.63909 57.47873 32331 ft 516 kts 130°
2026-04-26 05:18 23.61658 57.50915 32483 ft 517 kts 130°
2026-04-26 05:19 23.59404 57.53975 32644 ft 518 kts 129°
2026-04-26 05:19 23.57155 57.57042 32824 ft 519 kts 129°
2026-04-26 05:19 23.54933 57.60082 32930 ft 521 kts 129°
2026-04-26 05:19 23.52667 57.63188 32932 ft 526 kts 129°
2026-04-26 05:20 23.48078 57.69478 32952 ft 535 kts 129°
2026-04-26 05:20 23.43438 57.75829 32937 ft 535 kts 129°
2026-04-26 05:21 23.38804 57.82146 32943 ft 533 kts 129°
2026-04-26 05:21 23.34205 57.88412 32945 ft 533 kts 129°
2026-04-26 05:22 23.29572 57.94720 32937 ft 533 kts 129°
2026-04-26 05:22 23.24949 58.01006 32940 ft 532 kts 129°
2026-04-26 05:23 23.20540 58.07474 32936 ft 532 kts 124°
2026-04-26 05:23 23.16468 58.14129 32953 ft 532 kts 123°
2026-04-26 05:24 23.12354 58.20821 32943 ft 532 kts 124°
2026-04-26 05:24 23.08192 58.27451 32948 ft 530 kts 124°
2026-04-26 05:25 23.04020 58.34037 32939 ft 529 kts 124°
2026-04-26 05:25 23.00818 58.41191 32958 ft 528 kts 108°
2026-04-26 05:26 22.98572 58.48721 32947 ft 528 kts 106°
2026-04-26 05:26 22.96463 58.56356 32946 ft 528 kts 105°
2026-04-26 05:27 22.94355 58.63986 32949 ft 528 kts 105°
2026-04-26 05:27 22.92218 58.71616 32939 ft 528 kts 106°
2026-04-26 05:28 22.90067 58.79235 32941 ft 529 kts 106°
2026-04-26 05:28 22.87925 58.86798 32941 ft 528 kts 105°
2026-04-26 05:29 22.85770 58.94397 32945 ft 526 kts 105°
2026-04-26 05:29 22.83618 59.01980 32944 ft 526 kts 105°
2026-04-26 05:30 22.81461 59.09562 32949 ft 526 kts 105°
2026-04-26 05:30 22.79318 59.17078 32927 ft 525 kts 105°
2026-04-26 05:31 22.77157 59.24640 32931 ft 525 kts 105°
2026-04-26 05:31 22.74995 59.32195 32931 ft 525 kts 106°
2026-04-26 05:32 22.72832 59.39740 32906 ft 523 kts 106°
2026-04-26 05:32 22.70688 59.47198 32907 ft 521 kts 106°
2026-04-26 05:33 22.68534 59.54678 32895 ft 520 kts 106°
2026-04-26 05:33 22.66376 59.62159 32885 ft 520 kts 106°
2026-04-26 05:34 22.64218 59.69628 32883 ft 519 kts 106°
2026-04-26 05:34 22.62059 59.77084 32886 ft 519 kts 106°
2026-04-26 05:35 22.59914 59.84487 32889 ft 519 kts 106°
2026-04-26 05:35 22.57751 59.91937 32890 ft 519 kts 106°
2026-04-26 05:36 22.55584 59.99386 32890 ft 519 kts 106°
2026-04-26 05:36 22.53419 60.06817 32896 ft 518 kts 106°
2026-04-26 05:37 22.51266 60.14191 32898 ft 518 kts 106°
2026-04-26 05:37 22.49095 60.21613 32897 ft 517 kts 106°
2026-04-26 05:38 22.46923 60.29024 32894 ft 517 kts 106°
2026-04-26 05:38 22.44748 60.36434 32895 ft 517 kts 106°
2026-04-26 05:39 22.42569 60.43840 32898 ft 517 kts 106°
2026-04-26 05:39 22.40403 60.51192 32899 ft 516 kts 107°
2026-04-26 05:40 22.38223 60.58574 32897 ft 516 kts 107°
2026-04-26 05:40 22.36040 60.65955 32897 ft 516 kts 107°
2026-04-26 05:41 22.33854 60.73331 32898 ft 516 kts 107°
2026-04-26 05:41 22.31680 60.80655 32899 ft 515 kts 107°
2026-04-26 05:42 22.29493 60.88009 32900 ft 514 kts 107°
2026-04-26 05:42 22.27302 60.95361 32901 ft 514 kts 107°
2026-04-26 05:43 22.25108 61.02712 32899 ft 514 kts 107°
2026-04-26 05:43 22.22927 61.10003 32904 ft 513 kts 107°
2026-04-26 05:44 22.20736 61.17316 32905 ft 511 kts 107°
2026-04-26 05:44 22.18547 61.24611 32904 ft 511 kts 107°
2026-04-26 05:45 22.16356 61.31898 32902 ft 511 kts 107°
2026-04-26 05:45 22.14175 61.39137 32906 ft 510 kts 107°
2026-04-26 05:46 22.11982 61.46407 32906 ft 510 kts 107°
2026-04-26 05:46 22.09786 61.53669 32906 ft 510 kts 107°
2026-04-26 05:47 22.07586 61.60935 32909 ft 510 kts 107°
2026-04-26 05:47 22.05400 61.68142 32907 ft 510 kts 107°
2026-04-26 05:48 22.03194 61.75401 32912 ft 509 kts 107°
2026-04-26 05:48 22.00989 61.82645 32911 ft 508 kts 107°
2026-04-26 05:49 21.97693 61.93449 32909 ft 508 kts 107°
2026-04-26 05:50 21.95482 62.00679 32910 ft 508 kts 107°
2026-04-26 05:50 21.93269 62.07907 32911 ft 508 kts 107°
2026-04-26 05:51 21.91052 62.15132 32911 ft 508 kts 107°
2026-04-26 05:51 21.88832 62.22355 32911 ft 508 kts 107°
2026-04-26 05:52 21.86625 62.29523 32908 ft 508 kts 106°
2026-04-26 05:52 21.84343 62.36705 32911 ft 507 kts 111°
2026-04-26 05:53 21.81303 62.43562 32912 ft 508 kts 115°
2026-04-26 05:53 21.78084 62.50327 32912 ft 508 kts 115°
2026-04-26 05:54 21.74852 62.57035 32912 ft 508 kts 115°
2026-04-26 05:54 21.71609 62.63784 32911 ft 508 kts 115°
2026-04-26 05:55 21.68371 62.70534 32910 ft 508 kts 115°
2026-04-26 05:55 21.65134 62.77282 32911 ft 508 kts 115°
2026-04-26 05:56 21.61918 62.83978 32914 ft 507 kts 115°
2026-04-26 05:56 21.58680 62.90710 32910 ft 506 kts 115°
2026-04-26 05:57 21.55445 62.97426 32911 ft 506 kts 115°
2026-04-26 05:57 21.52205 63.04146 32911 ft 506 kts 115°
2026-04-26 05:58 21.48985 63.10813 32911 ft 506 kts 115°
2026-04-26 05:58 21.45741 63.17522 32911 ft 506 kts 116°
2026-04-26 05:59 21.42499 63.24220 32909 ft 505 kts 116°
2026-04-26 05:59 21.39259 63.30903 32912 ft 505 kts 116°
2026-04-26 06:00 21.36040 63.37535 32912 ft 505 kts 116°
2026-04-26 06:00 21.32795 63.44214 32915 ft 505 kts 116°
2026-04-26 06:01 21.29551 63.50881 32917 ft 503 kts 116°
2026-04-26 06:01 21.26310 63.57533 32910 ft 503 kts 116°
2026-04-26 06:02 21.23091 63.64134 32912 ft 503 kts 116°
2026-04-26 06:02 21.19846 63.70778 32912 ft 502 kts 116°
2026-04-26 06:03 21.16606 63.77404 32908 ft 501 kts 116°
2026-04-26 06:03 21.13371 63.84010 32908 ft 500 kts 116°
2026-04-26 06:04 21.10160 63.90562 32909 ft 500 kts 116°
2026-04-26 06:04 21.06924 63.97157 32912 ft 500 kts 116°
2026-04-26 06:05 21.03685 64.03747 32911 ft 500 kts 116°
2026-04-26 06:05 21.00443 64.10337 32909 ft 500 kts 116°
2026-04-26 06:06 20.97224 64.16872 32917 ft 500 kts 116°
2026-04-26 06:06 20.93980 64.23450 32906 ft 500 kts 116°
2026-04-26 06:07 20.90735 64.30022 32906 ft 500 kts 116°
2026-04-26 06:07 20.87484 64.36598 32909 ft 500 kts 116°
2026-04-26 06:08 20.84260 64.43113 32905 ft 499 kts 116°
2026-04-26 06:08 20.81012 64.49667 32905 ft 499 kts 116°
2026-04-26 06:09 20.77761 64.56219 32907 ft 499 kts 116°
2026-04-26 06:09 20.74513 64.62759 32905 ft 498 kts 116°
2026-04-26 06:10 20.71286 64.69246 32907 ft 497 kts 116°
2026-04-26 06:10 20.68037 64.75772 32907 ft 498 kts 116°
2026-04-26 06:11 20.64787 64.82293 32904 ft 498 kts 116°
2026-04-26 06:11 20.61533 64.88813 32907 ft 498 kts 116°
2026-04-26 06:12 20.58277 64.95329 32907 ft 497 kts 116°
2026-04-26 06:12 20.55046 65.01796 32908 ft 497 kts 116°
2026-04-26 06:13 20.51838 65.08325 32906 ft 496 kts 115°
2026-04-26 06:13 20.48648 65.14855 32905 ft 496 kts 116°
2026-04-26 06:14 20.45447 65.21385 32906 ft 497 kts 116°
2026-04-26 06:14 20.42266 65.27857 32905 ft 496 kts 116°
2026-04-26 06:15 20.39055 65.34376 32906 ft 497 kts 116°
2026-04-26 06:15 20.35840 65.40895 32892 ft 497 kts 116°
2026-04-26 06:16 20.32623 65.47413 32907 ft 497 kts 116°
2026-04-26 06:16 20.29405 65.53924 32900 ft 497 kts 116°
2026-04-26 06:17 20.26205 65.60393 32901 ft 497 kts 116°
2026-04-26 06:17 20.22980 65.66903 32905 ft 497 kts 116°
2026-04-26 06:18 20.19751 65.73414 32895 ft 497 kts 116°
2026-04-26 06:18 20.16521 65.79921 32893 ft 497 kts 116°
2026-04-26 06:19 20.13309 65.86383 32897 ft 497 kts 116°
2026-04-26 06:19 20.10075 65.92881 32899 ft 497 kts 116°
2026-04-26 06:20 20.06835 65.99385 32899 ft 498 kts 116°
2026-04-26 06:20 20.03592 66.05886 32898 ft 498 kts 116°
2026-04-26 06:21 20.00366 66.12348 32889 ft 498 kts 116°
2026-04-26 06:21 19.97114 66.18852 32886 ft 498 kts 116°
2026-04-26 06:22 19.93860 66.25356 32899 ft 498 kts 116°
2026-04-26 06:22 19.90604 66.31854 32896 ft 498 kts 116°
2026-04-26 06:23 19.87368 66.38305 32894 ft 498 kts 117°
2026-04-26 06:23 19.84109 66.44794 32891 ft 498 kts 117°
2026-04-26 06:24 19.80843 66.51291 32895 ft 499 kts 117°
2026-04-26 06:24 19.77570 66.57793 32890 ft 500 kts 117°
2026-04-26 06:25 19.74291 66.64301 32880 ft 499 kts 117°
2026-04-26 06:25 19.71036 66.70754 32892 ft 499 kts 117°
2026-04-26 06:26 19.67756 66.77248 32899 ft 499 kts 117°
2026-04-26 06:26 19.64475 66.83739 32896 ft 499 kts 117°
2026-04-26 06:27 19.61189 66.90232 32895 ft 499 kts 117°
2026-04-26 06:27 19.57925 66.96673 32901 ft 499 kts 117°
2026-04-26 06:28 19.54636 67.03157 32887 ft 499 kts 117°
2026-04-26 06:28 19.51346 67.09635 32891 ft 499 kts 117°
2026-04-26 06:29 19.48051 67.16116 32883 ft 499 kts 117°
2026-04-26 06:29 19.44776 67.22550 32887 ft 499 kts 117°
2026-04-26 06:30 19.41480 67.29020 32897 ft 499 kts 117°
2026-04-26 06:30 19.38181 67.35487 32894 ft 499 kts 117°
2026-04-26 06:31 19.34882 67.41949 32884 ft 499 kts 117°
2026-04-26 06:31 19.31579 67.48409 32886 ft 498 kts 117°
2026-04-26 06:32 19.28304 67.54810 32884 ft 497 kts 117°
2026-04-26 06:32 19.25013 67.61234 32882 ft 496 kts 118°
2026-04-26 06:33 19.21721 67.67651 32878 ft 496 kts 118°
2026-04-26 06:33 19.18426 67.74068 32879 ft 496 kts 118°
2026-04-26 06:34 19.15152 67.80438 32878 ft 496 kts 117°
2026-04-26 06:34 19.11854 67.86849 32876 ft 496 kts 118°
2026-04-26 06:35 19.08554 67.93255 32880 ft 496 kts 118°
2026-04-26 06:35 19.05246 67.99674 32878 ft 498 kts 119°
2026-04-26 06:36 19.01966 68.06123 32875 ft 498 kts 118°
2026-04-26 06:36 18.98742 68.12552 32874 ft 498 kts 118°
2026-04-26 06:37 18.95493 68.19020 32882 ft 498 kts 118°
2026-04-26 06:37 18.92232 68.25490 32875 ft 500 kts 118°
2026-04-26 06:38 18.88959 68.31969 32878 ft 500 kts 119°
2026-04-26 06:38 18.85704 68.38401 32878 ft 500 kts 119°
2026-04-26 06:39 18.82427 68.44875 32877 ft 500 kts 120°
2026-04-26 06:39 18.79140 68.51358 32878 ft 502 kts 120°
2026-04-26 06:40 18.75841 68.57858 32878 ft 504 kts 121°
2026-04-26 06:40 18.72550 68.64335 32878 ft 505 kts 121°
2026-04-26 06:41 18.69232 68.70860 32876 ft 505 kts 121°
2026-04-26 06:41 18.65912 68.77381 32881 ft 505 kts 121°
2026-04-26 06:42 18.62591 68.83899 32873 ft 505 kts 121°
2026-04-26 06:42 18.59262 68.90425 32881 ft 506 kts 122°
2026-04-26 06:43 18.55946 68.96916 32871 ft 507 kts 123°
2026-04-26 06:43 18.52599 69.03462 32874 ft 507 kts 123°
2026-04-26 06:44 18.49252 69.10004 32880 ft 507 kts 123°
2026-04-26 06:44 18.45899 69.16548 32874 ft 507 kts 123°
2026-04-26 06:45 18.42546 69.23087 32877 ft 508 kts 123°
2026-04-26 06:45 18.39205 69.29593 32876 ft 509 kts 123°
2026-04-26 06:46 18.35966 69.36235 32874 ft 511 kts 121°
2026-04-26 06:46 18.32913 69.43001 32882 ft 512 kts 120°
2026-04-26 06:47 18.29852 69.49761 32865 ft 512 kts 121°
2026-04-26 06:47 18.26771 69.56460 32879 ft 513 kts 122°
2026-04-26 06:48 18.23639 69.63223 32876 ft 514 kts 122°
2026-04-26 06:48 18.20502 69.69986 32876 ft 514 kts 122°
2026-04-26 06:49 18.17364 69.76746 32868 ft 514 kts 122°
2026-04-26 06:49 18.14246 69.83456 32874 ft 514 kts 122°
2026-04-26 06:50 18.11101 69.90216 32871 ft 515 kts 122°
2026-04-26 06:50 18.07951 69.96980 32870 ft 515 kts 122°
2026-04-26 06:51 18.04799 70.03740 32867 ft 515 kts 122°
2026-04-26 06:51 18.00095 70.13820 32871 ft 514 kts 122°
2026-04-26 06:52 17.96944 70.20559 32853 ft 514 kts 122°
2026-04-26 06:52 17.93794 70.27289 32865 ft 513 kts 122°
2026-04-26 06:53 17.90644 70.34013 32865 ft 513 kts 122°
2026-04-26 06:53 17.87512 70.40689 32864 ft 513 kts 122°
2026-04-26 06:54 17.84357 70.47408 32865 ft 513 kts 122°
2026-04-26 06:54 17.81199 70.54128 32867 ft 513 kts 123°
2026-04-26 06:55 17.78042 70.60840 32865 ft 513 kts 123°
2026-04-26 06:55 17.74895 70.67510 32867 ft 513 kts 123°
2026-04-26 06:56 17.71725 70.74219 32873 ft 513 kts 123°
2026-04-26 06:56 17.68553 70.80926 32871 ft 513 kts 123°
2026-04-26 06:57 17.65378 70.87636 32870 ft 513 kts 123°
2026-04-26 06:57 17.62198 70.94347 32868 ft 515 kts 123°
2026-04-26 06:58 17.59033 71.01020 32869 ft 515 kts 123°
2026-04-26 06:58 17.55844 71.07738 32861 ft 515 kts 123°
2026-04-26 06:59 17.52650 71.14459 32866 ft 515 kts 123°
2026-04-26 06:59 17.49459 71.21168 32858 ft 514 kts 123°
2026-04-26 07:00 17.46296 71.27811 32862 ft 513 kts 123°
2026-04-26 07:00 17.43112 71.34490 32859 ft 513 kts 123°
2026-04-26 07:01 17.39922 71.41173 32854 ft 513 kts 123°
2026-04-26 07:01 17.36732 71.47850 32854 ft 513 kts 123°
2026-04-26 07:02 17.33564 71.54486 32853 ft 513 kts 123°
2026-04-26 07:02 17.30369 71.61156 32854 ft 513 kts 123°
2026-04-26 07:03 17.27162 71.67839 32854 ft 514 kts 123°
2026-04-26 07:03 17.23957 71.74518 32853 ft 514 kts 123°
2026-04-26 07:04 17.20772 71.81152 32850 ft 513 kts 123°
2026-04-26 07:04 17.17570 71.87815 32853 ft 513 kts 123°
2026-04-26 07:05 17.14363 71.94478 32851 ft 513 kts 123°
2026-04-26 07:05 17.11153 72.01142 32853 ft 513 kts 123°
2026-04-26 07:06 17.07964 72.07770 32852 ft 514 kts 122°
2026-04-26 07:06 17.04813 72.14470 32853 ft 514 kts 122°
2026-04-26 07:07 17.01675 72.21188 32854 ft 514 kts 122°
2026-04-26 07:07 16.98529 72.27897 32848 ft 514 kts 122°
2026-04-26 07:08 16.95373 72.34602 32841 ft 515 kts 122°
2026-04-26 07:08 16.92234 72.41261 32849 ft 514 kts 122°
2026-04-26 07:09 16.89081 72.47944 32851 ft 513 kts 122°
2026-04-26 07:09 16.85922 72.54629 32851 ft 513 kts 122°
2026-04-26 07:11 16.78039 72.71286 32861 ft 514 kts 122°
2026-04-26 07:11 16.74872 72.77968 32861 ft 514 kts 122°
2026-04-26 07:12 16.71704 72.84645 32859 ft 514 kts 122°
2026-04-26 07:12 16.68534 72.91319 32857 ft 513 kts 122°
2026-04-26 07:13 16.65383 72.97945 32846 ft 513 kts 122°
2026-04-26 07:13 16.62212 73.04608 32847 ft 513 kts 122°
2026-04-26 07:14 16.59040 73.11266 32858 ft 513 kts 122°
2026-04-26 07:14 16.55803 73.17890 32857 ft 512 kts 123°
2026-04-26 07:15 16.52522 73.24475 32870 ft 512 kts 123°
2026-04-26 07:15 16.49265 73.31020 32861 ft 512 kts 123°
2026-04-26 07:16 16.45995 73.37611 32878 ft 512 kts 123°
2026-04-26 07:16 16.42731 73.44194 32879 ft 512 kts 123°
2026-04-26 07:17 16.39461 73.50781 32880 ft 512 kts 123°
2026-04-26 07:17 16.36217 73.57316 33203 ft 510 kts 122°
2026-04-26 07:17 16.34618 73.60598 33551 ft 507 kts 122°
2026-04-26 07:18 16.33043 73.63877 33859 ft 505 kts 122°
2026-04-26 07:18 16.31480 73.67148 34066 ft 505 kts 122°
2026-04-26 07:18 16.29911 73.70424 34221 ft 506 kts 122°
2026-04-26 07:18 16.28340 73.73698 34385 ft 505 kts 122°
2026-04-26 07:19 16.26768 73.76965 34575 ft 505 kts 122°
2026-04-26 07:19 16.25194 73.80231 34759 ft 505 kts 122°
2026-04-26 07:19 16.23639 73.83453 34888 ft 506 kts 122°
2026-04-26 07:20 16.20471 73.90007 34925 ft 506 kts 122°
2026-04-26 07:20 16.17327 73.96542 34934 ft 505 kts 122°
2026-04-26 07:21 16.14184 74.03070 34920 ft 505 kts 122°
2026-04-26 07:21 16.11049 74.09572 34928 ft 507 kts 122°
2026-04-26 07:22 16.07885 74.16130 34937 ft 507 kts 122°
2026-04-26 07:22 16.04724 74.22678 34931 ft 507 kts 122°
2026-04-26 07:23 16.01562 74.29224 34935 ft 507 kts 122°
2026-04-26 07:23 15.98396 74.35767 34961 ft 507 kts 122°
2026-04-26 07:24 15.95247 74.42267 34980 ft 508 kts 122°
2026-04-26 07:24 15.92065 74.48829 35005 ft 509 kts 122°
2026-04-26 07:25 15.88883 74.55391 35020 ft 508 kts 122°
2026-04-26 07:25 15.85700 74.61948 35022 ft 509 kts 122°
2026-04-26 07:26 15.82454 74.68409 35021 ft 507 kts 123°
2026-04-26 07:26 15.79084 74.74845 34989 ft 507 kts 123°
2026-04-26 07:27 15.75724 74.81274 34964 ft 507 kts 123°
2026-04-26 07:27 15.72382 74.87715 34932 ft 507 kts 123°
2026-04-26 07:28 15.69046 74.94159 34894 ft 507 kts 123°
2026-04-26 07:28 15.65732 75.00555 34891 ft 507 kts 123°
2026-04-26 07:29 15.62395 75.06988 34892 ft 507 kts 123°
2026-04-26 07:29 15.59055 75.13421 34887 ft 506 kts 123°
2026-04-26 07:30 15.55712 75.19854 34882 ft 506 kts 123°
2026-04-26 07:30 15.52394 75.26232 34880 ft 506 kts 123°
2026-04-26 07:31 15.49048 75.32659 34873 ft 506 kts 123°
2026-04-26 07:31 15.45702 75.39082 34897 ft 506 kts 123°
2026-04-26 07:32 15.42353 75.45502 34874 ft 506 kts 122°
2026-04-26 07:32 15.39004 75.51919 34876 ft 506 kts 122°
2026-04-26 07:33 15.35673 75.58295 34872 ft 506 kts 122°
2026-04-26 07:33 15.32316 75.64714 34876 ft 506 kts 122°
2026-04-26 07:34 15.28960 75.71129 34869 ft 507 kts 123°
2026-04-26 07:34 15.25603 75.77537 34869 ft 506 kts 123°
2026-04-26 07:35 15.22265 75.83904 34865 ft 506 kts 123°
2026-04-26 07:35 15.18905 75.90308 34857 ft 506 kts 122°
2026-04-26 07:36 15.15555 75.96689 34868 ft 503 kts 122°
2026-04-26 07:36 15.12238 76.03050 34868 ft 502 kts 122°
2026-04-26 07:37 15.09068 76.09441 34867 ft 503 kts 121°
2026-04-26 07:37 15.05902 76.15891 34863 ft 503 kts 120°
2026-04-26 07:38 15.02721 76.22322 34867 ft 501 kts 120°
2026-04-26 07:38 14.99534 76.28726 34867 ft 501 kts 121°
2026-04-26 07:39 14.96363 76.35081 34867 ft 501 kts 121°
2026-04-26 07:39 14.93171 76.41478 34866 ft 501 kts 121°
2026-04-26 07:40 14.89978 76.47871 34866 ft 501 kts 121°
2026-04-26 07:40 14.86777 76.54274 34867 ft 503 kts 120°
2026-04-26 07:41 14.83550 76.60721 34858 ft 507 kts 120°
2026-04-26 07:41 14.80333 76.67149 34848 ft 507 kts 120°
2026-04-26 07:42 14.77092 76.73618 34849 ft 507 kts 120°
2026-04-26 07:42 14.73853 76.80080 34842 ft 507 kts 120°
2026-04-26 07:43 14.71158 76.85448 34841 ft 506 kts 120°
2026-04-26 07:43 14.67378 76.92973 34843 ft 509 kts 120°
2026-04-26 07:44 14.64662 76.98375 34839 ft 510 kts 120°
2026-04-26 07:44 14.61389 77.04880 34838 ft 510 kts 120°
2026-04-26 07:45 14.58115 77.11379 34835 ft 510 kts 121°
2026-04-26 07:45 14.54247 77.18902 34835 ft 511 kts 121°
2026-04-26 07:46 14.51445 77.24318 34838 ft 511 kts 121°
2026-04-26 07:46 14.48127 77.30741 34835 ft 511 kts 121°
2026-04-26 07:47 14.44788 77.37215 34834 ft 511 kts 121°
2026-04-26 07:47 14.41448 77.43689 34846 ft 511 kts 121°
2026-04-26 07:48 14.38110 77.50155 34845 ft 511 kts 121°
2026-04-26 07:48 14.34787 77.56584 34844 ft 511 kts 121°
2026-04-26 07:49 14.31441 77.63053 34859 ft 512 kts 121°
2026-04-26 07:49 14.28089 77.69528 34851 ft 512 kts 121°
2026-04-26 07:50 14.23052 77.79248 34853 ft 513 kts 122°
2026-04-26 07:50 14.19709 77.85691 34848 ft 514 kts 122°
2026-04-26 07:51 14.16340 77.92180 34871 ft 514 kts 122°
2026-04-26 07:51 14.12968 77.98669 34869 ft 514 kts 122°
2026-04-26 07:52 14.09595 78.05156 34868 ft 513 kts 122°
2026-04-26 07:52 14.06223 78.11637 34891 ft 513 kts 122°
2026-04-26 07:53 14.02867 78.18078 34888 ft 513 kts 122°
2026-04-26 07:53 13.99492 78.24554 34887 ft 514 kts 122°
2026-04-26 07:54 13.96110 78.31036 34882 ft 513 kts 122°
2026-04-26 07:54 13.92730 78.37510 34903 ft 513 kts 122°
2026-04-26 07:55 13.89369 78.43943 34890 ft 514 kts 122°
2026-04-26 07:55 13.85981 78.50416 34890 ft 514 kts 122°
2026-04-26 07:56 13.82595 78.56889 34890 ft 514 kts 122°
2026-04-26 07:56 13.79206 78.63364 34905 ft 514 kts 122°
2026-04-26 07:57 13.75813 78.69837 34888 ft 514 kts 122°
2026-04-26 07:57 13.72443 78.76260 34892 ft 513 kts 122°
2026-04-26 07:58 13.69049 78.82723 34890 ft 514 kts 122°
2026-04-26 07:58 13.65654 78.89184 34895 ft 514 kts 122°
2026-04-26 07:59 13.62279 78.95603 34895 ft 513 kts 122°
2026-04-26 07:59 13.58883 79.02057 34881 ft 514 kts 122°
2026-04-26 08:00 13.55480 79.08518 34882 ft 514 kts 122°
2026-04-26 08:00 13.52074 79.14980 34877 ft 514 kts 122°
2026-04-26 08:01 13.48668 79.21437 34869 ft 514 kts 122°
2026-04-26 08:01 13.45260 79.27894 34863 ft 514 kts 122°
2026-04-26 08:02 13.41873 79.34305 34847 ft 514 kts 122°
2026-04-26 08:02 13.38463 79.40756 34840 ft 514 kts 122°
2026-04-26 08:03 13.35052 79.47203 34834 ft 514 kts 122°
2026-04-26 08:03 13.31639 79.53649 34834 ft 513 kts 122°
2026-04-26 08:04 13.28250 79.60045 34829 ft 513 kts 122°
2026-04-26 08:04 13.24834 79.66486 34829 ft 514 kts 122°
2026-04-26 08:05 13.21419 79.72922 34823 ft 514 kts 122°
2026-04-26 08:05 13.17999 79.79362 34823 ft 514 kts 122°
2026-04-26 08:06 13.14579 79.85796 34824 ft 514 kts 122°
2026-04-26 08:06 13.11180 79.92187 34823 ft 514 kts 122°
2026-04-26 08:07 13.07752 79.98626 34827 ft 514 kts 122°
2026-04-26 08:07 13.04326 80.05060 34828 ft 514 kts 122°
2026-04-26 08:08 13.00897 80.11493 34829 ft 514 kts 122°
2026-04-26 08:08 12.97520 80.17899 34826 ft 515 kts 119°
2026-04-26 08:09 12.94565 80.24608 34829 ft 517 kts 116°
2026-04-26 08:09 12.91756 80.31386 34830 ft 516 kts 116°
2026-04-26 08:10 12.88885 80.38128 34834 ft 516 kts 117°
2026-04-26 08:10 12.85980 80.44803 34839 ft 516 kts 117°
2026-04-26 08:11 12.83039 80.51512 34843 ft 516 kts 117°
2026-04-26 08:11 12.80096 80.58224 34843 ft 516 kts 117°
2026-04-26 08:12 12.77152 80.64940 34842 ft 517 kts 117°
2026-04-26 08:12 12.74228 80.71608 34845 ft 517 kts 117°
2026-04-26 08:13 12.71282 80.78319 34845 ft 517 kts 117°
2026-04-26 08:13 12.68332 80.85037 34845 ft 517 kts 117°
2026-04-26 08:14 12.65382 80.91746 34841 ft 517 kts 117°
2026-04-26 08:14 12.62431 80.98454 34845 ft 517 kts 117°
2026-04-26 08:15 12.59499 81.05113 34848 ft 516 kts 116°
2026-04-26 08:15 12.56553 81.11801 34848 ft 514 kts 116°
2026-04-26 08:16 12.53609 81.18476 34848 ft 514 kts 116°
2026-04-26 08:16 12.50664 81.25147 34848 ft 515 kts 116°
2026-04-26 08:17 12.47738 81.31772 34847 ft 514 kts 116°
2026-04-26 08:17 12.44795 81.38432 34851 ft 513 kts 116°
2026-04-26 08:18 12.41851 81.45086 34848 ft 513 kts 116°
2026-04-26 08:18 12.38907 81.51735 34851 ft 513 kts 116°
2026-04-26 08:19 12.35979 81.58343 34851 ft 513 kts 116°
2026-04-26 08:19 12.33030 81.64993 34851 ft 513 kts 116°
2026-04-26 08:20 12.30084 81.71634 34848 ft 512 kts 116°
2026-04-26 08:20 12.27143 81.78257 34847 ft 511 kts 116°
2026-04-26 08:21 12.24224 81.84825 34851 ft 511 kts 116°
2026-04-26 08:21 12.21284 81.91435 34851 ft 511 kts 116°
2026-04-26 08:22 12.18344 81.98039 34851 ft 511 kts 116°
2026-04-26 08:22 12.15402 82.04644 34851 ft 510 kts 116°
2026-04-26 08:23 12.12460 82.11244 34851 ft 510 kts 116°
2026-04-26 08:23 12.09533 82.17806 34851 ft 511 kts 116°
2026-04-26 08:24 12.06586 82.24405 34851 ft 510 kts 116°
2026-04-26 08:24 12.03639 82.31002 34851 ft 510 kts 116°
2026-04-26 08:25 12.00690 82.37598 34848 ft 510 kts 116°
2026-04-26 08:25 11.97758 82.44149 34848 ft 511 kts 116°
2026-04-26 08:26 11.94806 82.50743 34848 ft 511 kts 116°
2026-04-26 08:26 11.91853 82.57333 34848 ft 510 kts 116°
2026-04-26 08:27 11.88904 82.63911 34848 ft 509 kts 116°
2026-04-26 08:27 11.85972 82.70443 34848 ft 509 kts 116°
2026-04-26 08:28 11.83021 82.77013 34848 ft 509 kts 116°
2026-04-26 08:28 11.80071 82.83579 34848 ft 509 kts 116°
2026-04-26 08:29 11.77122 82.90136 34848 ft 508 kts 116°
2026-04-26 08:29 11.74193 82.96643 34848 ft 508 kts 116°
2026-04-26 08:30 11.71241 83.03197 34848 ft 508 kts 116°
2026-04-26 08:30 11.68287 83.09751 34848 ft 508 kts 116°
2026-04-26 08:31 11.65332 83.16302 34845 ft 508 kts 115°
2026-04-26 08:31 11.62401 83.22798 34845 ft 507 kts 115°
2026-04-26 08:32 11.59449 83.29333 34845 ft 507 kts 115°
2026-04-26 08:32 11.56517 83.35867 34845 ft 507 kts 115°
2026-04-26 08:33 11.53631 83.42430 34845 ft 507 kts 115°
2026-04-26 08:33 11.50769 83.48947 34845 ft 507 kts 115°
2026-04-26 08:34 11.47879 83.55505 34845 ft 507 kts 115°
2026-04-26 08:34 11.44984 83.62056 34845 ft 507 kts 115°
2026-04-26 08:35 11.42085 83.68609 34843 ft 507 kts 115°
2026-04-26 08:35 11.39208 83.75108 34842 ft 507 kts 115°
2026-04-26 08:36 11.36310 83.81652 34842 ft 507 kts 115°
2026-04-26 08:36 11.33410 83.88196 34842 ft 507 kts 115°
2026-04-26 08:37 11.30508 83.94739 34845 ft 506 kts 115°
2026-04-26 08:37 11.27636 84.01210 34846 ft 504 kts 115°
2026-04-26 08:38 11.24745 84.07719 34844 ft 504 kts 115°
2026-04-26 08:38 11.21863 84.14203 34846 ft 502 kts 115°
2026-04-26 08:39 11.18982 84.20681 34845 ft 502 kts 115°
2026-04-26 08:39 11.16119 84.27113 34845 ft 502 kts 115°
2026-04-26 08:40 11.13240 84.33579 34844 ft 500 kts 115°
2026-04-26 08:40 11.10373 84.40012 34846 ft 498 kts 115°
2026-04-26 08:41 11.07508 84.46437 34845 ft 498 kts 115°
2026-04-26 08:41 11.04640 84.52863 34845 ft 498 kts 115°
2026-04-26 08:42 11.01791 84.59244 34845 ft 498 kts 115°
2026-04-26 08:42 10.98922 84.65664 34846 ft 498 kts 115°
2026-04-26 08:43 10.96052 84.72082 34842 ft 498 kts 115°
2026-04-26 08:43 10.93186 84.78488 34843 ft 497 kts 115°
2026-04-26 08:44 10.90320 84.84889 34843 ft 497 kts 115°
2026-04-26 08:44 10.87473 84.91242 34843 ft 497 kts 115°
2026-04-26 08:45 10.84602 84.97646 34842 ft 497 kts 115°
2026-04-26 08:45 10.81732 85.04045 34842 ft 497 kts 115°
2026-04-26 08:46 10.78861 85.10440 34842 ft 497 kts 115°
2026-04-26 08:46 10.76009 85.16788 34842 ft 496 kts 115°
2026-04-26 08:47 10.73140 85.23171 34843 ft 496 kts 115°
2026-04-26 08:47 10.70268 85.29557 34840 ft 496 kts 115°
2026-04-26 08:48 10.67397 85.35936 34837 ft 496 kts 115°
2026-04-26 08:48 10.64523 85.42318 34837 ft 496 kts 115°
2026-04-26 08:49 10.61671 85.48647 34837 ft 495 kts 115°
2026-04-26 08:49 10.58803 85.55008 34837 ft 495 kts 115°
2026-04-26 08:50 10.55933 85.61368 34837 ft 495 kts 115°
2026-04-26 08:50 10.53063 85.67724 34834 ft 494 kts 115°
2026-04-26 08:51 10.48792 85.77177 34837 ft 492 kts 115°
2026-04-26 08:52 10.45936 85.83493 34834 ft 492 kts 115°
2026-04-26 08:52 10.43076 85.89813 34835 ft 492 kts 115°
2026-04-26 08:53 10.40216 85.96130 34835 ft 492 kts 115°
2026-04-26 08:53 10.37355 86.02446 34832 ft 492 kts 115°
2026-04-26 08:54 10.34511 86.08719 34831 ft 492 kts 115°
2026-04-26 08:54 10.31648 86.15032 34832 ft 492 kts 115°
2026-04-26 08:55 10.28783 86.21344 34829 ft 492 kts 115°
2026-04-26 08:55 10.25917 86.27656 34829 ft 492 kts 115°
2026-04-26 08:56 10.23071 86.33919 34827 ft 492 kts 115°
2026-04-26 08:56 10.20201 86.40230 34828 ft 492 kts 115°
2026-04-26 08:57 10.17332 86.46535 34832 ft 492 kts 115°
2026-04-26 08:57 10.14467 86.52830 34828 ft 491 kts 115°
2026-04-26 08:58 10.11602 86.59118 34828 ft 491 kts 115°
2026-04-26 08:58 10.08756 86.65364 34829 ft 491 kts 115°
2026-04-26 08:59 10.05889 86.71651 34829 ft 491 kts 115°
2026-04-26 08:59 10.03022 86.77933 34829 ft 491 kts 115°
2026-04-26 09:00 10.00170 86.84179 34829 ft 491 kts 115°
2026-04-26 09:00 9.97302 86.90458 34832 ft 491 kts 115°
2026-04-26 09:01 9.94431 86.96738 34832 ft 490 kts 115°
2026-04-26 09:01 9.91561 87.03013 34829 ft 490 kts 115°
2026-04-26 09:02 9.88692 87.09282 34829 ft 490 kts 115°
2026-04-26 09:02 9.85842 87.15506 34829 ft 490 kts 115°
2026-04-26 09:03 9.82972 87.21771 34831 ft 490 kts 115°
2026-04-26 09:03 9.80099 87.28037 34828 ft 489 kts 115°
2026-04-26 09:04 9.77229 87.34294 34829 ft 489 kts 115°
2026-04-26 09:04 9.74420 87.40520 34829 ft 489 kts 114°
2026-04-26 09:05 9.71655 87.46825 34826 ft 489 kts 114°
2026-04-26 09:05 9.68892 87.53122 34827 ft 489 kts 114°
2026-04-26 09:06 9.66114 87.59418 34826 ft 489 kts 114°
2026-04-26 09:06 9.63349 87.65666 34827 ft 489 kts 114°
2026-04-26 09:07 9.60565 87.71953 34829 ft 489 kts 114°
2026-04-26 09:07 9.57776 87.78247 34829 ft 490 kts 114°
2026-04-26 09:08 9.54987 87.84539 34830 ft 489 kts 114°
2026-04-26 09:08 9.52217 87.90784 34829 ft 489 kts 114°
2026-04-26 09:09 9.49427 87.97072 34825 ft 490 kts 114°
2026-04-26 09:09 9.46634 88.03363 34826 ft 490 kts 114°
2026-04-26 09:10 9.43839 88.09654 34824 ft 490 kts 114°
2026-04-26 09:10 9.41065 88.15894 34826 ft 489 kts 114°
2026-04-26 09:11 9.38274 88.22170 34827 ft 489 kts 114°
2026-04-26 09:11 9.35481 88.28446 34826 ft 489 kts 114°
2026-04-26 09:12 9.32687 88.34722 34825 ft 489 kts 114°
2026-04-26 09:12 9.29910 88.40955 34827 ft 489 kts 114°
2026-04-26 09:13 9.27115 88.47225 34825 ft 489 kts 114°
2026-04-26 09:13 9.24321 88.53491 34823 ft 488 kts 114°
2026-04-26 09:14 9.21545 88.59710 34826 ft 488 kts 114°
2026-04-26 09:14 9.18753 88.65965 34826 ft 488 kts 114°
2026-04-26 09:15 9.15961 88.72215 34825 ft 488 kts 114°
2026-04-26 09:15 9.13165 88.78469 34826 ft 487 kts 114°
2026-04-26 09:16 9.10371 88.84717 34825 ft 488 kts 114°
2026-04-26 09:16 9.07592 88.90929 34825 ft 487 kts 114°
2026-04-26 09:17 9.04797 88.97173 34822 ft 488 kts 114°
2026-04-26 09:17 9.01997 89.03423 34825 ft 488 kts 114°
2026-04-26 09:18 8.99195 89.09675 34823 ft 488 kts 114°
2026-04-26 09:18 8.96394 89.15922 34825 ft 488 kts 114°
2026-04-26 09:19 8.93611 89.22126 34824 ft 488 kts 114°
2026-04-26 09:19 8.90808 89.28369 34821 ft 487 kts 114°
2026-04-26 09:20 8.88011 89.34598 34822 ft 486 kts 114°
2026-04-26 09:20 8.85212 89.40828 34824 ft 486 kts 114°
2026-04-26 09:21 8.82433 89.47008 34824 ft 486 kts 114°
2026-04-26 09:21 8.79633 89.53235 34820 ft 486 kts 114°
2026-04-26 09:22 8.76831 89.59462 34820 ft 486 kts 114°
2026-04-26 09:22 8.74029 89.65683 34823 ft 486 kts 114°
2026-04-26 09:23 8.71227 89.71904 34826 ft 486 kts 114°
2026-04-26 09:23 8.68445 89.78077 34822 ft 486 kts 114°
2026-04-26 09:24 8.65644 89.84287 34825 ft 486 kts 114°
2026-04-26 09:24 8.62841 89.90500 34823 ft 486 kts 114°
2026-04-26 09:25 8.60039 89.96708 34819 ft 486 kts 114°
2026-04-26 09:25 8.57255 90.02871 34822 ft 485 kts 114°
2026-04-26 09:26 8.54455 90.09067 34823 ft 485 kts 114°
2026-04-26 09:26 8.51656 90.15259 34819 ft 485 kts 114°
2026-04-26 09:27 8.48855 90.21454 34822 ft 485 kts 114°
2026-04-26 09:27 8.46053 90.27644 34820 ft 485 kts 114°
2026-04-26 09:28 8.43269 90.33793 34826 ft 485 kts 114°
2026-04-26 09:28 8.40464 90.39986 34821 ft 485 kts 114°
2026-04-26 09:29 8.37657 90.46180 34823 ft 485 kts 114°
2026-04-26 09:29 8.34845 90.52382 34825 ft 485 kts 114°
2026-04-26 09:30 8.32035 90.58576 34822 ft 486 kts 114°
2026-04-26 09:30 8.29239 90.64737 34823 ft 486 kts 114°
2026-04-26 09:31 8.26421 90.70943 34821 ft 486 kts 114°
2026-04-26 09:31 8.23605 90.77141 34821 ft 486 kts 114°
2026-04-26 09:32 8.20784 90.83347 34819 ft 486 kts 114°
2026-04-26 09:32 8.17984 90.89505 34819 ft 486 kts 114°
2026-04-26 09:33 8.15160 90.95712 34820 ft 486 kts 114°
2026-04-26 09:33 8.12336 91.01917 34821 ft 486 kts 114°
2026-04-26 09:34 8.09512 91.08119 34820 ft 486 kts 114°
2026-04-26 09:34 8.06687 91.14319 34822 ft 486 kts 114°
2026-04-26 09:35 8.03880 91.20477 34820 ft 486 kts 114°
2026-04-26 09:35 8.01053 91.26677 34816 ft 486 kts 114°
2026-04-26 09:36 7.98223 91.32879 34818 ft 486 kts 114°
2026-04-26 09:36 7.95393 91.39079 34817 ft 487 kts 114°
2026-04-26 09:37 7.92582 91.45235 34817 ft 487 kts 114°
2026-04-26 09:37 7.89749 91.51436 34813 ft 487 kts 115°
2026-04-26 09:38 7.86917 91.57633 34817 ft 487 kts 115°
2026-04-26 09:38 7.84083 91.63830 34816 ft 487 kts 115°
2026-04-26 09:38 7.82667 91.66926 34917 ft 487 kts 115°
2026-04-26 09:39 7.81254 91.70033 35113 ft 486 kts 114°
2026-04-26 09:39 7.79891 91.73098 35300 ft 486 kts 114°
2026-04-26 09:39 7.78524 91.76215 35478 ft 486 kts 114°
2026-04-26 09:39 7.77160 91.79333 35669 ft 486 kts 114°
2026-04-26 09:40 7.75795 91.82453 35839 ft 486 kts 114°
2026-04-26 09:40 7.74428 91.85568 36026 ft 486 kts 114°
2026-04-26 09:40 7.73060 91.88677 36191 ft 486 kts 114°
2026-04-26 09:40 7.71687 91.91791 36359 ft 486 kts 114°
2026-04-26 09:41 7.70313 91.94902 36524 ft 486 kts 114°
2026-04-26 09:41 7.68940 91.98009 36703 ft 486 kts 114°
2026-04-26 09:41 7.67564 92.01124 36804 ft 487 kts 114°
2026-04-26 09:42 7.64824 92.07321 36815 ft 486 kts 114°
2026-04-26 09:42 7.62077 92.13533 36815 ft 485 kts 114°
2026-04-26 09:43 7.59328 92.19748 36815 ft 485 kts 114°
2026-04-26 09:43 7.56577 92.25963 36815 ft 486 kts 114°
2026-04-26 09:44 7.53839 92.32148 36816 ft 486 kts 114°
2026-04-26 09:44 7.51086 92.38364 36815 ft 486 kts 114°
2026-04-26 09:45 7.48331 92.44579 36812 ft 486 kts 114°
2026-04-26 09:45 7.45578 92.50790 36812 ft 486 kts 114°
2026-04-26 09:46 7.42822 92.57005 36815 ft 486 kts 114°
2026-04-26 09:46 7.40084 92.63175 36815 ft 486 kts 114°
2026-04-26 09:47 7.37326 92.69387 36816 ft 486 kts 114°
2026-04-26 09:47 7.34570 92.75594 36815 ft 486 kts 114°
2026-04-26 09:48 7.31807 92.81811 36815 ft 486 kts 114°
2026-04-26 09:48 7.29047 92.88020 36816 ft 486 kts 114°
2026-04-26 09:49 7.26305 92.94187 36812 ft 486 kts 114°
2026-04-26 09:49 7.23541 93.00399 36812 ft 486 kts 114°
2026-04-26 09:50 7.20777 93.06609 36808 ft 486 kts 114°
2026-04-26 09:50 7.18033 93.12771 36810 ft 485 kts 114°
2026-04-26 09:51 7.15275 93.18964 36813 ft 485 kts 114°
2026-04-26 09:51 7.12515 93.25157 36813 ft 485 kts 114°
2026-04-26 09:52 7.09754 93.31351 36812 ft 485 kts 114°
2026-04-26 09:52 7.05610 93.40640 36815 ft 485 kts 114°
2026-04-26 09:53 7.02866 93.46790 36813 ft 485 kts 114°
2026-04-26 09:53 7.00102 93.52981 36812 ft 485 kts 114°
2026-04-26 09:54 6.97336 93.59173 36810 ft 485 kts 114°
2026-04-26 09:54 6.94571 93.65360 36810 ft 485 kts 114°
2026-04-26 09:55 6.91804 93.71551 36810 ft 485 kts 114°
2026-04-26 09:55 6.89057 93.77693 36810 ft 485 kts 114°
2026-04-26 09:56 6.86290 93.83878 36815 ft 484 kts 115°
2026-04-26 09:56 6.83528 93.90050 36815 ft 483 kts 115°
2026-04-26 09:57 6.80771 93.96206 36810 ft 483 kts 115°
2026-04-26 09:57 6.78029 94.02328 36809 ft 483 kts 115°
2026-04-26 09:58 6.75267 94.08492 36810 ft 483 kts 115°
2026-04-26 09:58 6.72503 94.14658 36813 ft 483 kts 115°
2026-04-26 09:59 6.70208 94.19777 36814 ft 483 kts 115°
2026-04-26 09:59 6.66993 94.26944 36810 ft 484 kts 115°
2026-04-26 10:00 6.64226 94.33108 36815 ft 484 kts 115°
2026-04-26 10:00 6.61457 94.39275 36816 ft 484 kts 115°
2026-04-26 10:01 6.58580 94.45389 36813 ft 483 kts 118°
2026-04-26 10:01 6.55286 94.51227 36813 ft 483 kts 121°
2026-04-26 10:02 6.51911 94.57070 36810 ft 483 kts 120°
2026-04-26 10:02 6.48597 94.62951 36813 ft 483 kts 120°
2026-04-26 10:03 6.45321 94.68853 36812 ft 483 kts 120°
2026-04-26 10:03 6.42076 94.74720 36812 ft 483 kts 120°
2026-04-26 10:04 6.38810 94.80619 36815 ft 483 kts 120°
2026-04-26 10:04 6.35541 94.86515 36815 ft 483 kts 120°
2026-04-26 10:05 6.32273 94.92407 36812 ft 483 kts 120°
2026-04-26 10:05 6.29002 94.98301 36812 ft 483 kts 119°
2026-04-26 10:06 6.25755 95.04152 36812 ft 483 kts 119°
2026-04-26 10:06 6.22484 95.10045 36812 ft 483 kts 119°
2026-04-26 10:07 6.19230 95.15943 36812 ft 483 kts 119°
2026-04-26 10:07 6.15982 95.21848 36812 ft 483 kts 119°
2026-04-26 10:08 6.12753 95.27710 36815 ft 483 kts 119°
2026-04-26 10:08 6.09498 95.33613 36818 ft 483 kts 119°
2026-04-26 10:09 6.06792 95.38517 36812 ft 483 kts 119°
2026-04-26 10:09 6.02984 95.45418 36810 ft 483 kts 119°
2026-04-26 10:10 6.00195 95.50285 36809 ft 483 kts 124°
2026-04-26 10:10 5.95483 95.56527 36810 ft 483 kts 129°
2026-04-26 10:11 5.91276 95.61784 36809 ft 483 kts 129°
2026-04-26 10:11 5.87760 95.66147 36796 ft 483 kts 129°
2026-04-26 10:12 5.83545 95.71393 36798 ft 483 kts 129°
2026-04-26 10:12 5.79354 95.76625 36796 ft 478 kts 129°
2026-04-26 10:13 5.75200 95.81813 36802 ft 476 kts 129°
2026-04-26 10:13 5.71080 95.86959 36801 ft 476 kts 129°
2026-04-26 10:14 5.66927 95.92143 36797 ft 477 kts 129°
2026-04-26 10:14 5.62744 95.97364 36811 ft 482 kts 129°
2026-04-26 10:15 5.58557 96.02586 36814 ft 483 kts 129°
2026-04-26 10:15 5.54344 96.07840 36812 ft 483 kts 129°
2026-04-26 10:16 5.50137 96.13086 36816 ft 480 kts 129°
2026-04-26 10:16 5.45959 96.18295 36816 ft 478 kts 129°
2026-04-26 10:17 5.41792 96.23488 36831 ft 478 kts 129°
2026-04-26 10:17 5.37650 96.28650 36828 ft 478 kts 129°
2026-04-26 10:18 5.33481 96.33842 36822 ft 478 kts 129°
2026-04-26 10:18 5.29310 96.39038 36843 ft 478 kts 129°
2026-04-26 10:19 5.25126 96.44247 36842 ft 480 kts 129°
2026-04-26 10:19 5.20965 96.49426 36845 ft 481 kts 128°
2026-04-26 10:20 5.16763 96.54655 36840 ft 482 kts 128°
2026-04-26 10:20 5.12557 96.59890 36862 ft 481 kts 128°
2026-04-26 10:21 5.08356 96.65115 36860 ft 482 kts 128°
2026-04-26 10:21 5.04174 96.70316 36854 ft 482 kts 128°
2026-04-26 10:22 4.99968 96.75546 36854 ft 481 kts 128°
2026-04-26 10:22 4.95767 96.80769 36876 ft 482 kts 128°
2026-04-26 10:23 4.91557 96.86002 36856 ft 482 kts 129°
2026-04-26 10:23 4.87381 96.91189 36866 ft 481 kts 129°
2026-04-26 10:24 4.83180 96.96407 36881 ft 481 kts 129°
2026-04-26 10:24 4.78970 97.01636 36873 ft 482 kts 129°
2026-04-26 10:25 4.74764 97.06858 36873 ft 481 kts 129°
2026-04-26 10:25 4.70591 97.12039 36869 ft 481 kts 129°
2026-04-26 10:26 4.66385 97.17260 36875 ft 481 kts 129°
2026-04-26 10:26 4.62179 97.22479 36879 ft 480 kts 129°
2026-04-26 10:27 4.57978 97.27692 36879 ft 481 kts 129°
2026-04-26 10:27 4.53797 97.32878 36864 ft 482 kts 129°
2026-04-26 10:28 4.49588 97.38097 36881 ft 481 kts 128°
2026-04-26 10:28 4.45377 97.43318 36885 ft 482 kts 128°
2026-04-26 10:29 4.41162 97.48544 36881 ft 482 kts 128°
2026-04-26 10:29 4.36948 97.53766 36894 ft 481 kts 128°
2026-04-26 10:30 4.32766 97.58949 36892 ft 481 kts 129°
2026-04-26 10:30 4.28558 97.64163 36892 ft 481 kts 129°
2026-04-26 10:31 4.24352 97.69373 36879 ft 480 kts 129°
2026-04-26 10:31 4.20151 97.74576 36876 ft 480 kts 129°
2026-04-26 10:32 4.15975 97.79747 36882 ft 481 kts 129°
2026-04-26 10:32 4.11770 97.84952 36880 ft 480 kts 129°
2026-04-26 10:33 4.07567 97.90153 36864 ft 480 kts 129°
2026-04-26 10:33 4.03363 97.95357 36860 ft 481 kts 129°
2026-04-26 10:34 3.99156 98.00562 36860 ft 481 kts 129°
2026-04-26 10:34 3.94972 98.05738 36839 ft 481 kts 129°
2026-04-26 10:35 3.90757 98.10951 36840 ft 482 kts 129°
2026-04-26 10:35 3.86539 98.16168 36836 ft 482 kts 129°
2026-04-26 10:36 3.82323 98.21380 36812 ft 481 kts 129°
2026-04-26 10:36 3.78134 98.26558 36812 ft 482 kts 128°
2026-04-26 10:37 3.73901 98.31790 36816 ft 485 kts 128°
2026-04-26 10:37 3.69653 98.37040 36792 ft 485 kts 129°
2026-04-26 10:38 3.65408 98.42286 36794 ft 485 kts 129°
2026-04-26 10:38 3.61152 98.47543 36800 ft 485 kts 129°
2026-04-26 10:39 3.56903 98.52791 36792 ft 485 kts 129°
2026-04-26 10:39 3.52685 98.58001 36793 ft 485 kts 129°
2026-04-26 10:40 3.48076 98.62932 36792 ft 486 kts 136°
2026-04-26 10:40 3.43149 98.67558 36800 ft 486 kts 137°
2026-04-26 10:41 3.38175 98.72130 36797 ft 485 kts 136°
2026-04-26 10:41 3.33203 98.76700 36801 ft 486 kts 136°
2026-04-26 10:42 3.28263 98.81253 36806 ft 486 kts 136°
2026-04-26 10:42 3.23288 98.85846 36809 ft 487 kts 136°
2026-04-26 10:43 3.18312 98.90439 36813 ft 486 kts 136°
2026-04-26 10:43 3.13338 98.95031 36821 ft 486 kts 136°
2026-04-26 10:44 3.08399 98.99588 36821 ft 486 kts 136°
2026-04-26 10:44 3.03433 99.04170 36819 ft 486 kts 136°
2026-04-26 10:45 2.98464 99.08755 36845 ft 485 kts 136°
2026-04-26 10:45 2.93497 99.13336 36830 ft 485 kts 136°
2026-04-26 10:46 2.88549 99.17900 36831 ft 483 kts 137°
2026-04-26 10:46 2.83637 99.22429 36853 ft 483 kts 136°
2026-04-26 10:47 2.78703 99.26980 36843 ft 483 kts 136°
2026-04-26 10:47 2.73761 99.31536 36843 ft 483 kts 136°
2026-04-26 10:48 2.68819 99.36092 36862 ft 483 kts 137°
2026-04-26 10:48 2.63901 99.40625 36847 ft 484 kts 136°
2026-04-26 10:49 2.58955 99.45183 36845 ft 483 kts 136°
2026-04-26 10:49 2.54009 99.49741 36864 ft 484 kts 136°
2026-04-26 10:50 2.49899 99.53529 36864 ft 484 kts 136°
2026-04-26 10:50 2.44108 99.58865 36845 ft 484 kts 136°
2026-04-26 10:51 2.36715 99.65676 36856 ft 484 kts 136°
2026-04-26 10:52 2.31760 99.70239 36834 ft 484 kts 136°
2026-04-26 10:52 2.26806 99.74802 36835 ft 484 kts 136°
2026-04-26 10:53 2.21881 99.79338 36846 ft 485 kts 136°
2026-04-26 10:53 2.16914 99.83912 36830 ft 486 kts 136°
2026-04-26 10:54 2.09463 99.90772 36832 ft 486 kts 136°
2026-04-26 10:54 2.04492 99.95348 36832 ft 486 kts 136°
2026-04-26 10:55 1.99557 99.99892 36820 ft 485 kts 136°
2026-04-26 10:55 1.94592 100.04462 36821 ft 485 kts 136°
2026-04-26 10:56 1.89624 100.09039 36821 ft 485 kts 136°
2026-04-26 10:56 1.84652 100.13607 36818 ft 485 kts 136°
2026-04-26 10:57 1.79723 100.18135 36818 ft 484 kts 136°
2026-04-26 10:57 1.74762 100.22696 36817 ft 484 kts 136°
2026-04-26 10:58 1.69808 100.27250 36818 ft 484 kts 136°
2026-04-26 10:58 1.64859 100.31800 36812 ft 484 kts 136°
2026-04-26 10:59 1.59906 100.36353 36812 ft 484 kts 136°
2026-04-26 10:59 1.54985 100.40876 36813 ft 484 kts 136°
2026-04-26 11:00 1.50033 100.45428 36811 ft 484 kts 136°
2026-04-26 11:00 1.45085 100.49975 36809 ft 483 kts 136°
2026-04-26 11:01 1.40130 100.54528 36807 ft 484 kts 136°
2026-04-26 11:01 1.35212 100.59047 36804 ft 484 kts 137°
2026-04-26 11:02 1.30258 100.63599 36807 ft 484 kts 137°
2026-04-26 11:02 1.25301 100.68154 36807 ft 484 kts 137°
2026-04-26 11:03 1.20345 100.72707 36804 ft 484 kts 137°
2026-04-26 11:03 1.15417 100.77234 36802 ft 484 kts 137°
2026-04-26 11:04 1.10463 100.81785 36804 ft 484 kts 136°
2026-04-26 11:04 1.05508 100.86338 36804 ft 484 kts 136°
2026-04-26 11:05 1.00554 100.90889 36802 ft 484 kts 136°
2026-04-26 11:05 0.95602 100.95437 36802 ft 484 kts 136°
2026-04-26 11:06 0.90684 100.99954 36802 ft 484 kts 136°
2026-04-26 11:06 0.85729 101.04506 36793 ft 484 kts 136°
2026-04-26 11:07 0.80776 101.09055 36793 ft 484 kts 136°
2026-04-26 11:07 0.75823 101.13603 36793 ft 484 kts 136°
2026-04-26 11:08 0.70863 101.18159 36796 ft 486 kts 136°
2026-04-26 11:08 0.65906 101.22712 36796 ft 488 kts 136°
2026-04-26 11:09 0.60909 101.27301 36800 ft 488 kts 136°
2026-04-26 11:09 0.55914 101.31888 36798 ft 487 kts 136°
2026-04-26 11:10 0.50931 101.36463 36802 ft 486 kts 136°
2026-04-26 11:10 0.45993 101.40997 36801 ft 485 kts 136°
2026-04-26 11:11 0.41220 101.45749 36802 ft 484 kts 131°
2026-04-26 11:11 0.36762 101.50797 36800 ft 484 kts 130°
2026-04-26 11:12 0.32363 101.55889 36799 ft 484 kts 129°
2026-04-26 11:12 0.27964 101.60988 36802 ft 484 kts 129°
2026-04-26 11:13 0.23588 101.66047 36801 ft 484 kts 129°
2026-04-26 11:13 0.19183 101.71133 36801 ft 484 kts 130°
2026-04-26 11:14 0.14774 101.76220 36801 ft 484 kts 130°
2026-04-26 11:14 0.10361 101.81312 36802 ft 484 kts 130°
2026-04-26 11:15 0.05981 101.86368 36804 ft 484 kts 130°
2026-04-26 11:15 0.01577 101.91451 36807 ft 484 kts 130°
2026-04-26 11:16 -0.02833 101.96541 36815 ft 484 kts 129°
2026-04-26 11:16 -0.07235 102.01622 36815 ft 483 kts 129°
2026-04-26 11:17 -0.11607 102.06668 36815 ft 483 kts 130°
2026-04-26 11:17 -0.16006 102.11745 36820 ft 483 kts 130°
2026-04-26 11:18 -0.20406 102.16824 36821 ft 483 kts 130°
2026-04-26 11:18 -0.24807 102.21903 36823 ft 483 kts 130°
2026-04-26 11:19 -0.29204 102.26978 36823 ft 483 kts 130°
2026-04-26 11:19 -0.33576 102.32026 36826 ft 483 kts 130°
2026-04-26 11:20 -0.37309 102.36238 36825 ft 484 kts 132°
2026-04-26 11:20 -0.42832 102.41789 36825 ft 486 kts 134°
2026-04-26 11:21 -0.47642 102.46545 36829 ft 487 kts 134°
2026-04-26 11:21 -0.52413 102.51342 36831 ft 487 kts 133°
2026-04-26 11:22 -0.57128 102.56128 36832 ft 487 kts 133°
2026-04-26 11:22 -0.61870 102.60952 36837 ft 487 kts 133°
2026-04-26 11:23 -0.66617 102.65777 36840 ft 487 kts 133°
2026-04-26 11:23 -0.71363 102.70601 36840 ft 487 kts 133°
2026-04-26 11:24 -0.76075 102.75388 36846 ft 487 kts 133°
2026-04-26 11:24 -0.80830 102.80220 36845 ft 488 kts 133°
2026-04-26 11:25 -0.85599 102.85065 36848 ft 489 kts 133°
2026-04-26 11:25 -0.90369 102.89912 36851 ft 489 kts 133°
2026-04-26 11:26 -0.95139 102.94759 36851 ft 489 kts 133°
2026-04-26 11:26 -0.99874 102.99572 36851 ft 489 kts 133°
2026-04-26 11:27 -1.04644 103.04419 36854 ft 489 kts 133°
2026-04-26 11:27 -1.09413 103.09266 36851 ft 489 kts 133°
2026-04-26 11:28 -1.14187 103.14119 36852 ft 490 kts 133°
2026-04-26 11:28 -1.18923 103.18948 36851 ft 490 kts 133°
2026-04-26 11:29 -1.23699 103.23815 36848 ft 490 kts 133°
2026-04-26 11:29 -1.28472 103.28678 36848 ft 490 kts 133°
2026-04-26 11:30 -1.32439 103.32722 36851 ft 490 kts 133°
2026-04-26 11:30 -1.38019 103.38410 36848 ft 490 kts 133°
2026-04-26 11:31 -1.42763 103.43247 36848 ft 490 kts 133°
2026-04-26 11:31 -1.47532 103.48110 36848 ft 490 kts 133°
2026-04-26 11:32 -1.52307 103.52979 36845 ft 490 kts 133°
2026-04-26 11:32 -1.57080 103.57846 36845 ft 490 kts 133°
2026-04-26 11:33 -1.61852 103.62713 36845 ft 490 kts 133°
2026-04-26 11:33 -1.66927 103.67198 36845 ft 491 kts 139°
2026-04-26 11:34 -1.72215 103.71518 36846 ft 491 kts 140°
2026-04-26 11:34 -1.77532 103.75807 36845 ft 491 kts 140°
2026-04-26 11:35 -1.82843 103.80097 36845 ft 491 kts 140°
2026-04-26 11:35 -1.87258 103.83672 36845 ft 491 kts 140°
2026-04-26 11:36 -1.93424 103.88672 36845 ft 491 kts 140°
2026-04-26 11:36 -1.98732 103.92976 36845 ft 491 kts 140°
2026-04-26 11:37 -2.04037 103.97278 36845 ft 491 kts 140°
2026-04-26 11:37 -2.09343 104.01582 36840 ft 491 kts 140°
2026-04-26 11:38 -2.14616 104.05859 36840 ft 491 kts 140°
2026-04-26 11:38 -2.19920 104.10161 36845 ft 491 kts 140°
2026-04-26 11:39 -2.25226 104.14465 36840 ft 491 kts 140°
2026-04-26 11:39 -2.30524 104.18763 36840 ft 491 kts 140°
2026-04-26 11:40 -2.35789 104.23036 36843 ft 490 kts 140°
2026-04-26 11:40 -2.41084 104.27332 36837 ft 490 kts 140°
2026-04-26 11:42 -2.62209 104.44478 36840 ft 489 kts 140°
2026-04-26 11:43 -2.67491 104.48767 36837 ft 489 kts 140°
2026-04-26 11:43 -2.72773 104.53055 36837 ft 489 kts 140°
2026-04-26 11:44 -2.78051 104.57342 36837 ft 489 kts 140°
2026-04-26 11:44 -2.83292 104.61599 36829 ft 489 kts 140°
2026-04-26 11:45 -2.88379 104.66089 36831 ft 487 kts 131°
2026-04-26 11:45 -2.92865 104.71176 36829 ft 487 kts 129°
2026-04-26 11:46 -2.97235 104.76359 36828 ft 487 kts 129°
2026-04-26 11:46 -3.01587 104.81552 36832 ft 487 kts 129°
2026-04-26 11:47 -3.05923 104.86707 36834 ft 487 kts 129°
2026-04-26 11:47 -3.10295 104.91890 36841 ft 487 kts 129°
2026-04-26 11:48 -3.14666 104.97070 36842 ft 487 kts 129°
2026-04-26 11:48 -3.19032 105.02244 36842 ft 486 kts 129°
2026-04-26 11:49 -3.23367 105.07384 36842 ft 486 kts 129°
2026-04-26 11:49 -3.27730 105.12557 36839 ft 486 kts 129°
2026-04-26 11:50 -3.32092 105.17730 36840 ft 486 kts 129°
2026-04-26 11:50 -3.36453 105.22903 36846 ft 486 kts 129°
2026-04-26 11:51 -3.40815 105.28078 36840 ft 486 kts 129°
2026-04-26 11:51 -3.45146 105.33216 36840 ft 486 kts 129°
2026-04-26 11:52 -3.48793 105.37544 36843 ft 485 kts 129°
2026-04-26 11:52 -3.53852 105.43548 36842 ft 485 kts 129°
2026-04-26 11:53 -3.58204 105.48714 36842 ft 485 kts 129°
2026-04-26 11:54 -3.64703 105.56429 36845 ft 485 kts 129°
2026-04-26 11:54 -3.69064 105.61592 36842 ft 485 kts 129°
2026-04-26 11:55 -3.73419 105.66751 36846 ft 485 kts 129°
2026-04-26 11:55 -3.77769 105.71907 36848 ft 484 kts 129°
2026-04-26 11:56 -3.82114 105.77058 36845 ft 484 kts 129°
2026-04-26 11:56 -3.86429 105.82175 36848 ft 484 kts 129°
2026-04-26 11:57 -3.90776 105.87330 36848 ft 484 kts 129°
2026-04-26 11:57 -3.95118 105.92480 36848 ft 484 kts 129°
2026-04-26 11:58 -3.99465 105.97638 36847 ft 484 kts 129°
2026-04-26 11:58 -4.03860 106.02679 36846 ft 484 kts 135°
2026-04-26 11:59 -4.09155 106.06831 36851 ft 484 kts 143°
2026-04-26 11:59 -4.14626 106.10751 36850 ft 484 kts 143°
2026-04-26 12:00 -4.20099 106.14683 36853 ft 484 kts 143°
2026-04-26 12:00 -4.25568 106.18621 36853 ft 484 kts 143°
2026-04-26 12:01 -4.30999 106.22533 36857 ft 484 kts 143°
2026-04-26 12:01 -4.36464 106.26471 36856 ft 484 kts 143°
2026-04-26 12:02 -4.41928 106.30410 36857 ft 484 kts 143°
2026-04-26 12:02 -4.47391 106.34348 36857 ft 484 kts 143°
2026-04-26 12:03 -4.52816 106.38260 36855 ft 483 kts 143°
2026-04-26 12:03 -4.58268 106.42192 36856 ft 483 kts 143°
2026-04-26 12:04 -4.63709 106.46117 36856 ft 483 kts 143°
2026-04-26 12:04 -4.69162 106.50051 36856 ft 483 kts 143°
2026-04-26 12:05 -4.74612 106.53984 36858 ft 483 kts 143°
2026-04-26 12:05 -4.80060 106.57916 36782 ft 480 kts 143°
2026-04-26 12:05 -4.82727 106.59842 36197 ft 479 kts 143°
2026-04-26 12:06 -4.85458 106.61768 35410 ft 483 kts 146°
2026-04-26 12:06 -4.88438 106.63378 34590 ft 489 kts 153°
2026-04-26 12:06 -4.91548 106.64816 33819 ft 493 kts 154°
2026-04-26 12:06 -4.94689 106.66241 32948 ft 496 kts 154°
2026-04-26 12:07 -4.97838 106.67671 32093 ft 499 kts 154°
2026-04-26 12:07 -5.01009 106.69114 31257 ft 501 kts 154°
2026-04-26 12:07 -5.04150 106.70547 30415 ft 504 kts 154°
2026-04-26 12:07 -5.07348 106.72007 29563 ft 506 kts 154°
2026-04-26 12:08 -5.10538 106.73464 28943 ft 501 kts 154°
2026-04-26 12:08 -5.13692 106.74905 28291 ft 496 kts 154°
2026-04-26 12:08 -5.16807 106.76328 27889 ft 487 kts 154°
2026-04-26 12:08 -5.19841 106.77717 27575 ft 468 kts 154°
2026-04-26 12:09 -5.22722 106.79019 27019 ft 442 kts 154°
2026-04-26 12:09 -5.25474 106.80260 26025 ft 429 kts 154°
2026-04-26 12:09 -5.28195 106.81491 25346 ft 428 kts 154°
2026-04-26 12:09 -5.30856 106.82695 25035 ft 422 kts 154°
2026-04-26 12:10 -5.33510 106.83897 24678 ft 416 kts 154°
2026-04-26 12:10 -5.36137 106.85087 24278 ft 413 kts 154°
2026-04-26 12:10 -5.38741 106.86267 23980 ft 407 kts 154°
2026-04-26 12:10 -5.41289 106.87421 23794 ft 397 kts 154°
2026-04-26 12:11 -5.43783 106.88550 23548 ft 390 kts 154°
2026-04-26 12:11 -5.46342 106.89424 23169 ft 389 kts 169°
2026-04-26 12:11 -5.49030 106.89424 22755 ft 389 kts 190°
2026-04-26 12:11 -5.51609 106.88622 22376 ft 387 kts 200°
2026-04-26 12:12 -5.54107 106.87636 21976 ft 385 kts 200°
2026-04-26 12:12 -5.56558 106.86660 21599 ft 382 kts 200°
2026-04-26 12:12 -5.59029 106.85688 21215 ft 380 kts 199°
2026-04-26 12:12 -5.60687 106.85040 20955 ft 378 kts 199°
2026-04-26 12:13 -5.63925 106.83783 20449 ft 375 kts 199°
2026-04-26 12:13 -5.66356 106.82842 20088 ft 373 kts 199°
2026-04-26 12:13 -5.68753 106.81915 19546 ft 365 kts 199°
2026-04-26 12:13 -5.71110 106.81004 18719 ft 363 kts 199°
2026-04-26 12:14 -5.73463 106.80097 17692 ft 362 kts 199°
2026-04-26 12:14 -5.75808 106.79192 16561 ft 360 kts 199°
2026-04-26 12:14 -5.78106 106.78306 15495 ft 358 kts 199°
2026-04-26 12:14 -5.80421 106.77413 14458 ft 355 kts 199°
2026-04-26 12:15 -5.82704 106.76532 13645 ft 346 kts 199°
2026-04-26 12:15 -5.84885 106.75615 13025 ft 335 kts 206°
2026-04-26 12:15 -5.86725 106.74180 12085 ft 343 kts 231°
2026-04-26 12:15 -5.87876 106.72078 11643 ft 343 kts 247°
2026-04-26 12:16 -5.88758 106.69881 11439 ft 335 kts 248°
2026-04-26 12:16 -5.89607 106.67719 11160 ft 331 kts 248°
2026-04-26 12:16 -5.90441 106.65608 10841 ft 328 kts 248°
2026-04-26 12:16 -5.91281 106.63494 10646 ft 322 kts 248°
2026-04-26 12:17 -5.92100 106.61436 10508 ft 313 kts 248°
2026-04-26 12:17 -5.92899 106.59434 10400 ft 305 kts 248°
2026-04-26 12:17 -5.93679 106.57484 10234 ft 298 kts 247°
2026-04-26 12:17 -5.94456 106.55575 10102 ft 291 kts 247°
2026-04-26 12:18 -5.95207 106.53737 9954 ft 277 kts 247°
2026-04-26 12:18 -5.95917 106.51998 9642 ft 264 kts 247°
2026-04-26 12:18 -5.96604 106.50314 9165 ft 258 kts 247°
2026-04-26 12:18 -5.97271 106.48679 8680 ft 255 kts 248°
2026-04-26 12:19 -5.97941 106.47034 8304 ft 254 kts 248°
2026-04-26 12:19 -5.98608 106.45399 8087 ft 252 kts 248°
2026-04-26 12:19 -5.99269 106.43777 7888 ft 250 kts 248°
2026-04-26 12:19 -5.99923 106.42171 7664 ft 248 kts 248°
2026-04-26 12:20 -6.00576 106.40569 7446 ft 247 kts 248°
2026-04-26 12:20 -6.01225 106.38974 7223 ft 246 kts 248°
2026-04-26 12:20 -6.01863 106.37408 7054 ft 244 kts 248°
2026-04-26 12:20 -6.02506 106.35829 7020 ft 245 kts 248°
2026-04-26 12:21 -6.03152 106.34244 7027 ft 245 kts 248°
2026-04-26 12:21 -6.03962 106.32745 6988 ft 245 kts 230°
2026-04-26 12:21 -6.05346 106.31803 6722 ft 243 kts 194°
2026-04-26 12:21 -6.07016 106.31744 6455 ft 241 kts 171°
2026-04-26 12:22 -6.08664 106.32026 6226 ft 240 kts 168°
2026-04-26 12:22 -6.10305 106.32341 5985 ft 239 kts 168°
2026-04-26 12:22 -6.11940 106.32649 5741 ft 238 kts 168°
2026-04-26 12:22 -6.13545 106.32943 5507 ft 237 kts 168°
2026-04-26 12:23 -6.15169 106.33237 5280 ft 237 kts 168°
2026-04-26 12:23 -6.16785 106.33525 5079 ft 234 kts 169°
2026-04-26 12:23 -6.18350 106.33803 5030 ft 220 kts 168°
2026-04-26 12:23 -6.19811 106.34128 5046 ft 212 kts 159°
2026-04-26 12:24 -6.20984 106.34956 5026 ft 204 kts 129°
2026-04-26 12:24 -6.21790 106.36107 4737 ft 201 kts 121°
2026-04-26 12:24 -6.22521 106.37315 4368 ft 203 kts 120°
2026-04-26 12:25 -6.23734 106.39839 3602 ft 203 kts 96°
2026-04-26 12:25 -6.23525 106.41229 3240 ft 202 kts 71°
2026-04-26 12:25 -6.23018 106.42536 3053 ft 201 kts 68°
2026-04-26 12:25 -6.22464 106.43827 3025 ft 201 kts 65°
2026-04-26 12:26 -6.21900 106.45115 3026 ft 201 kts 68°
2026-04-26 12:26 -6.21385 106.46403 3026 ft 201 kts 69°
2026-04-26 12:26 -6.20884 106.47679 3019 ft 187 kts 69°
2026-04-26 12:26 -6.20434 106.48814 3025 ft 163 kts 69°
2026-04-26 12:27 -6.20030 106.49819 2971 ft 148 kts 68°
2026-04-26 12:27 -6.19654 106.50754 2771 ft 142 kts 69°
2026-04-26 12:27 -6.19289 106.51674 2575 ft 142 kts 69°
2026-04-26 12:27 -6.18926 106.52593 2379 ft 142 kts 69°
2026-04-26 12:28 -6.18684 106.53202 2260 ft 141 kts 69°
2026-04-26 12:28 -6.18202 106.54418 2021 ft 141 kts 69°
2026-04-26 12:28 -6.17839 106.55334 1838 ft 141 kts 69°
2026-04-26 12:28 -6.17477 106.56246 1656 ft 141 kts 69°
2026-04-26 12:29 -6.17116 106.57159 1474 ft 140 kts 68°
2026-04-26 12:29 -6.16755 106.58068 1291 ft 140 kts 69°
2026-04-26 12:29 -6.16159 106.59570 997 ft 139 kts 68°
2026-04-26 12:30 -6.15802 106.60471 837 ft 139 kts 68°
2026-04-26 12:30 -6.15445 106.61374 674 ft 139 kts 67°
2026-04-26 12:30 -6.14986 106.62571 456 ft 139 kts 67°
2026-04-26 12:31 -6.14254 106.64355 103 ft 139 kts 66°
2026-04-26 12:31 -6.14029 106.64937 43 ft 118 kts 68°
2026-04-26 12:31 -6.13832 106.65431 44 ft 43 kts 68°
2026-04-26 12:31 -6.13721 106.65709 40 ft 42 kts 68°
2026-04-26 12:32 -6.13612 106.65978 39 ft 41 kts 67°
2026-04-26 12:32 -6.13474 106.66217 44 ft 36 kts 44°
2026-04-26 12:32 -6.13373 106.66294 43 ft 0 kts 17°
2026-04-26 12:34 -6.13358 106.66297 43 ft 8 kts
2026-04-26 12:34 -6.13270 106.66277 44 ft 19 kts 340°
2026-04-26 12:34 -6.13145 106.66227 40 ft 20 kts 338°
2026-04-26 12:34 -6.13019 106.66164 40 ft 17 kts 309°
2026-04-26 12:35 -6.13022 106.66083 42 ft 15 kts 251°
2026-04-26 12:35 -6.13056 106.65999 42 ft 0 kts 247°
2026-04-26 12:35 -6.13064 106.65968 42 ft 5 kts 270°
2026-04-26 12:35 -6.13054 106.65947 42 ft 3 kts 284°
2026-04-26 12:36 -6.13035 106.65921 42 ft 5 kts 324°
2026-04-26 12:36 -6.13006 106.65908 42 ft 0 kts 335°